EW3857 Weather Reports


Display with metric or nautical units.
time (UTC)temp
F
wind
direction
speed
MPH
gust
MPH
rain 1hr
in
rain 24hr
in
rain mn
in
humidity
%
barometer
mb
20260503220838 69 338 3.0 3.0 0.00 0.00 0.00 41 1020.1
20260503220335 69 282 1.0 1.0 0.00 0.00 0.00 42 1020.1
20260503215832 69 279 1.0 2.0 0.00 0.00 0.00 39 1020.0
20260503215329 68 274 2.0 2.0 0.00 0.00 0.00 38 1020.2
20260503214826 68 301 3.0 3.0 0.00 0.00 0.00 39 1020.1
20260503214324 68 295 1.0 1.0 0.00 0.00 0.00 41 1020.3
20260503213816 68 261 0.0 0.0 0.00 0.00 0.00 42 1020.4
20260503213313 68 235 1.0 1.0 0.00 0.00 0.00 43 1020.3
20260503212809 68 161 1.0 1.0 0.00 0.00 0.00 42 1020.4
20260503212307 68 273 0.0 0.0 0.00 0.00 0.00 43 1020.4
20260503211804 68 231 1.0 1.0 0.00 0.00 0.00 41 1020.6
20260503211256 68 259 0.0 1.0 0.00 0.00 0.00 44 1020.5
20260503210755 68 268 1.0 1.0 0.00 0.00 0.00 44 1020.7
20260503210253 67 357 1.0 2.0 0.00 0.00 0.00 44 1020.6
20260503205748 68 261 1.0 2.0 0.00 0.00 0.00 42 1020.7
20260503205245 68 299 1.0 1.0 0.00 0.00 0.00 40 1020.7
20260503204742 68 291 1.0 2.0 0.00 0.00 0.00 45 1021.0
20260503204239 68 258 0.0 1.0 0.00 0.00 0.00 43 1021.2
20260503203737 68 258 1.0 2.0 0.00 0.00 0.00 41 1021.1
20260503203234 68 310 3.0 3.0 0.00 0.00 0.00 41 1021.2
20260503202731 68 318 1.0 2.0 0.00 0.00 0.00 41 1021.1
20260503202229 68 343 6.0 7.0 0.00 0.00 0.00 43 1021.2
20260503201727 67 264 1.0 1.0 0.00 0.00 0.00 40 1021.4
20260503201224 67 343 3.0 5.0 0.00 0.00 0.00 40 1021.2
20260503200720 68 270 2.0 2.0 0.00 0.00 0.00 40 1021.2
20260503200217 68 288 2.0 3.0 0.00 0.00 0.00 39 1021.5
20260503195713 69 274 2.0 2.0 0.00 0.00 0.00 43 1021.7
20260503195210 69 281 2.0 2.0 0.00 0.00 0.00 40 1021.8
20260503194708 70 278 1.0 1.0 0.00 0.00 0.00 38 1021.9
20260503194203 70 270 1.0 1.0 0.00 0.00 0.00 35 1022.0
20260503193700 69 292 2.0 2.0 0.00 0.00 0.00 43 1022.1
20260503193156 68 288 0.0 0.0 0.00 0.00 0.00 41 1022.2
20260503192651 68 318 4.0 5.0 0.00 0.00 0.00 46 1022.3
20260503192147 67 315 0.0 1.0 0.00 0.00 0.00 46 1022.2
20260503191644 66 16 3.0 5.0 0.00 0.00 0.00 47 1022.5
20260503191141 65 72 2.0 2.0 0.00 0.00 0.00 49 1022.5
20260503190638 65 65 2.0 2.0 0.00 0.00 0.00 49 1022.7
20260503190135 64 205 3.0 3.0 0.00 0.00 0.00 54 1022.6
20260503185631 64 147 4.0 5.0 0.00 0.00 0.00 52 1023.0
20260503185126 64 167 5.0 7.0 0.00 0.00 0.00 51 1022.9
20260503184622 64 161 2.0 2.0 0.00 0.00 0.00 49 1022.8
20260503184118 63 124 4.0 5.0 0.00 0.00 0.00 52 1022.8
20260503183615 65 110 3.0 3.0 0.00 0.00 0.00 51 1022.9
20260503183112 64 301 1.0 1.0 0.00 0.00 0.00 53 1023.0
20260503182611 64 78 1.0 1.0 0.00 0.00 0.00 50 1023.2
20260503182109 63 132 4.0 5.0 0.00 0.00 0.00 51 1023.4
20260503181605 62 66 2.0 2.0 0.00 0.00 0.00 56 1023.3
20260503181102 63 99 3.0 3.0 0.00 0.00 0.00 53 1023.3
20260503180559 63 122 4.0 6.0 0.00 0.00 0.00 55 1023.4
20260503180056 62 143 4.0 5.0 0.00 0.00 0.00 54 1023.5
20260503175553 62 117 1.0 1.0 0.00 0.00 0.00 54 1023.7
20260503175051 62 101 2.0 2.0 0.00 0.00 0.00 56 1023.4
20260503174548 62 74 2.0 2.0 0.00 0.00 0.00 55 1023.5
20260503174044 61 97 1.0 2.0 0.00 0.00 0.00 52 1023.9
20260503173539 61 69 1.0 1.0 0.00 0.00 0.00 57 1023.8
20260503173036 61 148 5.0 5.0 0.00 0.00 0.00 58 1024.0
20260503172533 61 125 1.0 2.0 0.00 0.00 0.00 59 1024.0
20260503172030 60 144 4.0 5.0 0.00 0.00 0.00 56 1024.1
20260503171527 60 64 1.0 2.0 0.00 0.00 0.00 60 1024.1
20260503171024 60 83 1.0 2.0 0.00 0.00 0.00 59 1024.0
20260503170520 59 142 4.0 5.0 0.00 0.00 0.00 58 1024.2
20260503150907 55 51 2.0 2.0 0.00 0.00 0.00 70 1024.8
20260503150403 55 49 2.0 2.0 0.00 0.00 0.00 68 1024.8
20260503131256 52 20 5.0 6.0 0.00 0.00 0.00 77 1024.6
20260503130754 52 50 2.0 2.0 0.00 0.00 0.00 80 1024.6
20260503130251 52 42 2.0 3.0 0.00 0.00 0.00 80 1024.2
20260503120217 49 281 1.0 2.0 0.00 0.00 0.00 86 1023.9
20260503110645 45 252 0.0 0.0 0.00 0.00 0.00 94 1023.5
20260503110142 45 247 1.0 1.0 0.00 0.00 0.00 93 1023.4
20260503100109 45 277 0.0 0.0 0.00 0.00 0.00 94 1022.8
20260503081451 48 266 0.0 0.0 0.00 0.00 0.00 86 1022.1
20260503080948 48 274 1.0 1.0 0.00 0.00 0.00 85 1022.0
20260503080440 48 275 0.0 1.0 0.00 0.00 0.00 84 1022.1
20260503072916 49 258 0.0 1.0 0.00 0.00 0.00 81 1021.8
20260503072413 49 255 1.0 1.0 0.00 0.00 0.00 81 1021.6
20260503071910 49 280 0.0 1.0 0.00 0.00 0.00 81 1021.6
20260503071408 49 284 0.0 1.0 0.00 0.00 0.00 81 1021.6
20260503070903 50 288 1.0 1.0 0.00 0.00 0.00 80 1021.7
20260503070401 50 321 1.0 2.0 0.00 0.00 0.00 80 1021.6
20260503060326 51 287 0.0 1.0 0.00 0.00 0.00 75 1021.7
20260503054814 52 277 1.0 2.0 0.00 0.00 0.00 73 1021.5
20260503054310 52 285 1.0 1.0 0.00 0.00 0.00 73 1021.5
20260503053808 52 281 1.0 2.0 0.00 0.00 0.00 73 1021.6
20260503053306 52 272 2.0 2.0 0.00 0.00 0.00 73 1021.5
20260503052802 52 274 2.0 2.0 0.00 0.00 0.00 73 1021.4
20260503052259 52 282 1.0 2.0 0.00 0.00 0.00 72 1021.3
20260503051754 52 284 1.0 1.0 0.00 0.00 0.00 72 1021.5
20260503051246 52 277 0.0 1.0 0.00 0.00 0.00 72 1021.3
20260503050743 52 284 0.0 1.0 0.00 0.00 0.00 72 1021.3
20260503050239 52 284 0.0 0.0 0.00 0.00 0.00 72 1021.1
20260503045736 52 280 1.0 1.0 0.00 0.00 0.00 72 1021.3
20260503045234 53 275 1.0 1.0 0.00 0.00 0.00 72 1021.2
20260503044730 53 286 1.0 1.0 0.00 0.00 0.00 72 1021.0
20260503044228 53 282 0.0 0.0 0.00 0.00 0.00 71 1021.2
20260503043724 53 276 1.0 1.0 0.00 0.00 0.00 70 1021.1
20260503043222 53 275 1.0 1.0 0.00 0.00 0.00 69 1021.1
20260503042718 53 270 1.0 1.0 0.00 0.00 0.00 68 1021.1
20260503042215 54 282 1.0 1.0 0.00 0.00 0.00 68 1021.1
20260503041710 54 286 0.0 1.0 0.00 0.00 0.00 68 1021.1
20260503041209 54 284 1.0 1.0 0.00 0.00 0.00 67 1020.9
20260503040706 54 282 1.0 1.0 0.00 0.00 0.00 66 1021.1
20260503040203 55 285 0.0 1.0 0.00 0.00 0.00 65 1020.9
20260503035659 55 280 2.0 2.0 0.00 0.00 0.00 64 1020.9
20260503035157 55 301 1.0 1.0 0.00 0.00 0.00 63 1020.9
20260503034655 56 291 1.0 1.0 0.00 0.00 0.00 63 1020.8
20260503034151 56 282 2.0 2.0 0.00 0.00 0.00 63 1020.8
20260503033649 56 306 2.0 2.0 0.00 0.00 0.00 64 1020.9
20260503033146 56 338 3.0 3.0 0.00 0.00 0.00 62 1020.7
20260503032644 56 274 1.0 1.0 0.00 0.00 0.00 63 1020.7
20260503032143 56 304 1.0 2.0 0.00 0.00 0.00 62 1020.7
20260503031639 56 280 1.0 2.0 0.00 0.00 0.00 61 1020.6
20260503031137 56 290 1.0 2.0 0.00 0.00 0.00 60 1020.6
20260503030633 56 301 2.0 3.0 0.00 0.00 0.00 61 1020.4
20260503030130 56 6 4.0 5.0 0.00 0.00 0.00 63 1020.5
20260503025626 53 285 0.0 0.0 0.00 0.00 0.00 68 1020.4
20260503025125 53 316 1.0 2.0 0.00 0.00 0.00 69 1020.4
20260503024621 53 316 1.0 1.0 0.00 0.00 0.00 76 1020.1
20260503024118 54 278 0.0 1.0 0.00 0.00 0.00 69 1019.8
20260503023615 54 277 1.0 1.0 0.00 0.00 0.00 72 1019.8
20260503023112 55 266 0.0 1.0 0.00 0.00 0.00 70 1019.6
20260503022608 55 273 1.0 1.0 0.00 0.00 0.00 64 1019.8
20260503022103 55 271 1.0 1.0 0.00 0.00 0.00 67 1019.6
20260503021600 56 278 0.0 1.0 0.00 0.00 0.00 64 1019.4
20260503021057 56 282 0.0 0.0 0.00 0.00 0.00 59 1019.5
20260503020554 56 286 0.0 0.0 0.00 0.00 0.00 59 1019.4
20260503020050 55 283 0.0 1.0 0.00 0.00 0.00 61 1019.4
20260503015547 55 282 1.0 1.0 0.00 0.00 0.00 64 1019.4
20260503015045 54 287 0.0 1.0 0.00 0.00 0.00 70 1019.4
20260503014540 54 282 2.0 2.0 0.00 0.00 0.00 71 1019.2
20260503014039 54 270 1.0 1.0 0.00 0.00 0.00 72 1019.2
20260503013535 55 276 1.0 1.0 0.00 0.00 0.00 71 1018.9
20260503013033 55 268 0.0 1.0 0.00 0.00 0.00 72 1019.0
20260503012530 55 278 1.0 1.0 0.00 0.00 0.00 70 1018.9
20260503012027 56 276 1.0 1.0 0.00 0.00 0.00 68 1018.7
20260503011523 56 272 1.0 2.0 0.00 0.00 0.00 66 1018.8
20260503011021 56 268 0.0 0.0 0.00 0.00 0.00 67 1018.5
20260503010517 57 272 1.0 1.0 0.00 0.00 0.00 64 1018.7
20260503010015 57 261 1.0 1.0 0.00 0.00 0.00 64 1018.4
20260503005512 58 266 1.0 1.0 0.00 0.00 0.00 61 1018.4
20260503005009 58 273 1.0 1.0 0.00 0.00 0.00 62 1018.5
20260503004505 59 271 1.0 2.0 0.00 0.00 0.00 59 1018.3
20260503004003 59 269 1.0 1.0 0.00 0.00 0.00 56 1018.5
20260503003459 60 247 0.0 0.0 0.00 0.00 0.00 55 1018.5
20260503002957 61 276 0.0 0.0 0.00 0.00 0.00 50 1018.2
20260503002454 61 275 0.0 0.0 0.00 0.00 0.00 47 1018.0
20260503001949 61 275 1.0 1.0 0.00 0.00 0.00 47 1017.9
20260503001447 62 272 0.0 0.0 0.00 0.00 0.00 45 1018.0
20260503000944 62 271 0.0 0.0 0.00 0.00 0.00 44 1017.9
20260503000441 63 279 0.0 1.0 0.00 0.00 0.00 43 1018.2
20260502235938 63 277 1.0 1.0 0.00 0.00 0.00 42 1017.6
20260502235435 63 281 0.0 1.0 0.00 0.00 0.00 42 1017.8
20260502234933 64 291 2.0 2.0 0.00 0.00 0.00 40 1017.5
20260502234429 64 277 0.0 0.0 0.00 0.00 0.00 41 1017.5
20260502233926 64 276 1.0 2.0 0.00 0.00 0.00 41 1017.5
20260502233421 65 264 0.0 1.0 0.00 0.00 0.00 40 1017.6
20260502232919 65 295 1.0 1.0 0.00 0.00 0.00 40 1017.5
20260502232415 65 274 0.0 0.0 0.00 0.00 0.00 40 1017.6
20260502231912 65 267 2.0 2.0 0.00 0.00 0.00 39 1017.5
20260502231409 65 274 2.0 2.0 0.00 0.00 0.00 38 1017.4
20260502230907 65 291 2.0 2.0 0.00 0.00 0.00 37 1017.4
20260502230405 66 268 0.0 1.0 0.00 0.00 0.00 40 1017.3
20260502225901 66 277 1.0 2.0 0.00 0.00 0.00 36 1017.4
20260502225353 66 315 3.0 5.0 0.00 0.00 0.00 37 1017.3
20260502224850 66 300 1.0 1.0 0.00 0.00 0.00 41 1017.4
20260502224346 66 266 2.0 3.0 0.00 0.00 0.00 35 1017.1
20260502223843 66 276 1.0 1.0 0.00 0.00 0.00 38 1017.4
20260502223341 67 287 1.0 2.0 0.00 0.00 0.00 36 1017.4
20260502222838 67 270 1.0 1.0 0.00 0.00 0.00 38 1017.4
20260502222336 67 271 2.0 2.0 0.00 0.00 0.00 38 1017.6
20260502221832 66 298 2.0 2.0 0.00 0.00 0.00 36 1017.6
20260502221328 66 343 4.0 5.0 0.00 0.00 0.00 38 1017.3